Weather History for KGEV - July, 2013

Change the Weather History Date:

Thursday, July 4, 2013

  Actual Average Record
Temperature  
Mean Temperature 66 °F -  
Max Temperature 71 °F 79 °F 87 °F (1993)
Min Temperature 61 °F 58 °F 46 °F (1986)
Cooling Degree Days 1    
Growing Degree Days 16 (Base 50)    
Moisture  
Dew Point 63 °F    
Average Humidity 92    
Maximum Humidity 94    
Minimum Humidity 82    
Precipitation  
Precipitation 0.87 in - - ()
Sea Level Pressure  
Sea Level Pressure 30.32 in    
Wind  
Wind Speed 2 mph (SE)    
Max Wind Speed 8 mph    
Max Gust Speed -    
Visibility 6 miles    
Events Fog , Rain    
Averages and records for this station are not official NWS values.
T = Trace of Precipitation, MM = Missing Value Source: NWS Daily Summary

Daily Weather History Graph

Daily Weather History Graph

Search for Another Location

Airport or City:

Trip Planner

Search our weather history database for the weather conditions in past years. The results will help you decide how hot, cold, wet, or windy it might be!

Date:

Astronomy

Jul. 04, 2013 Rise Set
Actual Time 6:12 AM EDT 8:47 PM EDT
Civil Twilight 5:42 AM EDT 9:17 PM EDT
Nautical Twilight 5:05 AM EDT 9:54 PM EDT
Astronomical Twilight 4:23 AM EDT 10:36 PM EDT
Moon 3:26 AM EDT 5:52 PM EDT
Length of Visible Light 15h 34m
Length of Day
14h 34m
Waning Crescent, 11% of the Moon is Illuminated
Jul 4
Waning Crescent
Jul 8
New
Jul 15
First Quarter
Jul 22
Full
Jul 29
Last Quarter

Hourly Weather History & Observations

Time (EDT) Temp. Dew Point Humidity Pressure Visibility Wind Dir Wind Speed Gust Speed Precip Events Conditions
12:15 AM 62.1 °F 60.3 °F 94% 30.31 in 0.5 mi Calm Calm - N/A Fog Fog
12:35 AM 61.9 °F 60.1 °F 94% 30.32 in 0.8 mi Calm Calm - N/A   Overcast
12:55 AM 61.9 °F 60.1 °F 94% 30.32 in 1.0 mi Calm Calm - N/A   Overcast
1:15 AM 62.1 °F 60.3 °F 94% 30.33 in 7.0 mi Calm Calm - N/A Rain Rain
1:35 AM 62.2 °F 60.4 °F 94% 30.33 in 3.0 mi Calm Calm - 0.01 in Rain Rain
1:55 AM 62.6 °F 60.8 °F 94% 30.33 in 4.0 mi Calm Calm - 0.05 in Rain Heavy Rain
2:15 AM 62.2 °F 60.4 °F 94% 30.33 in 1.0 mi Calm Calm - 0.01 in Rain Light Rain
2:35 AM 62.6 °F 60.8 °F 94% 30.31 in 2.0 mi Calm Calm - 0.01 in Rain Light Rain
2:55 AM 62.2 °F 60.4 °F 94% 30.30 in 3.0 mi Calm Calm - 0.03 in Rain Light Rain
3:15 AM 62.6 °F 60.8 °F 94% 30.31 in 10.0 mi Calm Calm - N/A Rain Light Rain
3:35 AM 62.6 °F 60.8 °F 94% 30.31 in 0.5 mi Calm Calm - N/A   Drizzle
3:55 AM 62.6 °F 60.8 °F 94% 30.30 in 1.0 mi Calm Calm - N/A   Light Drizzle
4:15 AM 62.6 °F 60.8 °F 94% 30.30 in 10.0 mi Calm Calm - N/A   Overcast
4:35 AM 62.6 °F 60.8 °F 94% 30.30 in 1.8 mi Calm Calm - N/A Rain Rain
4:55 AM 62.8 °F 61.0 °F 94% 30.31 in 4.0 mi Calm Calm - N/A Rain Heavy Rain
5:15 AM 62.8 °F 61.0 °F 94% 30.31 in 2.5 mi Calm Calm - N/A Rain Heavy Rain
5:35 AM 63.3 °F 61.5 °F 94% 30.32 in 4.0 mi West 3.5 mph - N/A Rain Heavy Rain
5:55 AM 63.1 °F 61.3 °F 94% 30.31 in 10.0 mi Calm Calm - N/A Rain Light Rain
6:15 AM 63.5 °F 61.7 °F 94% 30.31 in 10.0 mi Calm Calm - N/A Rain Light Rain
6:35 AM 63.5 °F 61.7 °F 94% 30.31 in 7.0 mi Calm Calm - N/A Rain Rain
6:55 AM 64.0 °F 62.2 °F 94% 30.31 in 5.0 mi SSE 3.5 mph - N/A Rain Rain
7:15 AM 64.4 °F 62.6 °F 94% 30.31 in 0.2 mi SE 3.5 mph - N/A Rain Rain
7:35 AM 64.6 °F 62.8 °F 94% 30.33 in 0.2 mi Calm Calm - N/A Rain Light Rain
7:55 AM 64.8 °F 63.0 °F 94% 30.34 in 0.5 mi SE 3.5 mph - N/A Fog Fog
8:15 AM 65.1 °F 63.3 °F 94% 30.33 in 1.8 mi Calm Calm - N/A   Overcast
8:35 AM 64.9 °F 63.1 °F 94% 30.34 in 5.0 mi Calm Calm - N/A   Overcast
8:55 AM 65.5 °F 63.7 °F 94% 30.34 in 7.0 mi SSE 4.6 mph - N/A   Overcast
9:15 AM 65.3 °F 63.5 °F 94% 30.35 in 4.0 mi SE 5.8 mph - N/A   Overcast
9:35 AM 65.7 °F 63.9 °F 94% 30.35 in 10.0 mi SE 4.6 mph - N/A   Overcast
9:55 AM 65.8 °F 63.9 °F 93% 30.35 in 10.0 mi SSE 4.6 mph - N/A   Overcast
10:15 AM 66.0 °F 64.2 °F 94% 30.35 in 10.0 mi Calm Calm - N/A   Overcast
10:35 AM 68.0 °F 65.7 °F 92% 30.34 in 10.0 mi SE 3.5 mph - N/A   Overcast
10:55 AM 67.5 °F 64.8 °F 91% 30.34 in 10.0 mi SE 5.8 mph - N/A   Overcast
11:15 AM 67.8 °F 64.6 °F 89% 30.35 in 10.0 mi ESE 6.9 mph - N/A   Overcast
11:35 AM 67.8 °F 64.8 °F 90% 30.35 in 5.0 mi SSE 8.1 mph - N/A Rain Light Rain
11:55 AM 67.5 °F 64.6 °F 90% 30.35 in 7.0 mi SE 4.6 mph - N/A   Overcast
12:15 PM 67.6 °F 65.1 °F 92% 30.35 in 7.0 mi SE 4.6 mph - N/A   Overcast
12:35 PM 67.8 °F 64.6 °F 89% 30.34 in 5.0 mi SSE 3.5 mph - N/A Rain Light Rain
12:55 PM 66.7 °F 64.4 °F 92% 30.34 in 2.0 mi SE 3.5 mph - 0.04 in Rain Light Rain
1:15 PM 66.6 °F 64.4 °F 93% 30.34 in 2.5 mi SE 3.5 mph - 0.03 in Rain Heavy Rain
1:35 PM 67.3 °F 65.1 °F 93% 30.33 in 5.0 mi SE 8.1 mph - 0.10 in Rain Light Rain
1:55 PM 68.5 °F 65.8 °F 91% 30.32 in 10.0 mi SE 4.6 mph - 0.10 in   Overcast
2:15 PM 67.8 °F 65.3 °F 92% 30.33 in 4.0 mi SSE 3.5 mph - 0.01 in Rain Heavy Rain
2:35 PM 69.1 °F 66.9 °F 93% 30.32 in 5.0 mi SSE 4.6 mph - 0.11 in Rain Light Rain
2:55 PM 71.1 °F 66.6 °F 86% 30.31 in 10.0 mi SE 6.9 mph - 0.11 in   Overcast
3:15 PM 70.5 °F 66.0 °F 86% 30.31 in 7.0 mi SE 8.1 mph - N/A   Overcast
3:35 PM 70.5 °F 65.7 °F 85% 30.31 in 10.0 mi SSE 6.9 mph - N/A   Mostly Cloudy
3:55 PM 70.9 °F 65.7 °F 83% 30.31 in 10.0 mi SE 4.6 mph - N/A   Overcast
4:15 PM 70.2 °F 65.3 °F 85% 30.31 in 10.0 mi SE 4.6 mph - N/A   Overcast
4:35 PM 69.8 °F 65.3 °F 86% 30.30 in 10.0 mi SE 3.5 mph - N/A   Mostly Cloudy
4:55 PM 70.7 °F 65.5 °F 83% 30.30 in 10.0 mi Calm Calm - N/A   Scattered Clouds
5:15 PM 71.2 °F 65.7 °F 82% 30.29 in 10.0 mi SE 3.5 mph - N/A   Mostly Cloudy
5:35 PM 68.7 °F 64.2 °F 86% 30.31 in 7.0 mi ESE 6.9 mph - N/A Rain Light Rain
5:55 PM 67.5 °F 64.0 °F 89% 30.29 in 10.0 mi ESE 3.5 mph - N/A   Mostly Cloudy
6:15 PM 68.9 °F 64.9 °F 87% 30.30 in 10.0 mi Calm Calm - N/A   Scattered Clouds
6:35 PM 68.7 °F 63.3 °F 83% 30.29 in 10.0 mi Calm Calm - N/A   Mostly Cloudy
6:55 PM 68.0 °F 64.8 °F 89% 30.32 in 1.2 mi Calm Calm - 0.23 in Rain Heavy Rain
7:15 PM 65.1 °F 62.8 °F 92% 30.31 in 1.8 mi South 3.5 mph - 0.23 in Rain Heavy Rain
7:35 PM 64.6 °F 62.4 °F 93% 30.32 in 10.0 mi Calm Calm - 0.25 in   Overcast
7:55 PM 65.3 °F 63.0 °F 92% 30.32 in 5.0 mi SE 3.5 mph - 0.25 in   Overcast
8:15 PM 65.3 °F 63.3 °F 93% 30.31 in 1.8 mi Calm Calm - N/A   Overcast
8:35 PM 65.5 °F 63.3 °F 93% 30.31 in 7.0 mi SE 5.8 mph - N/A   Overcast
8:55 PM 65.7 °F 63.7 °F 93% 30.31 in 7.0 mi SE 4.6 mph - N/A   Overcast
9:15 PM 65.8 °F 63.9 °F 93% 30.31 in 5.0 mi SE 3.5 mph - N/A   Light Drizzle
9:35 PM 66.2 °F 64.0 °F 93% 30.31 in 3.0 mi SE 4.6 mph - 0.01 in Rain Rain
9:55 PM 66.4 °F 64.4 °F 93% 30.31 in 5.0 mi SE 4.6 mph - 0.01 in Rain Light Rain
10:15 PM 65.3 °F 63.0 °F 92% 30.32 in 5.0 mi ESE 3.5 mph - 0.02 in Rain Light Rain
10:35 PM 64.2 °F 61.7 °F 91% 30.33 in 10.0 mi Calm Calm - 0.02 in Rain Light Rain
10:55 PM 63.7 °F 61.5 °F 93% 30.33 in 5.0 mi Calm Calm - 0.04 in Rain Rain
11:15 PM 63.7 °F 61.7 °F 93% 30.33 in 2.5 mi SE 3.5 mph - N/A Rain Light Rain
11:35 PM 64.6 °F 62.6 °F 93% 30.32 in 10.0 mi SE 4.6 mph - N/A   Overcast
11:55 PM 65.3 °F 63.1 °F 93% 30.32 in 10.0 mi SSE 4.6 mph - 0.01 in Rain Rain